GFSNIL_sfc_dewp_000.txt.gz
Dewpoint
40 41 41 38 38 36 36 35 34 34 35 36 37 36 36 37 37 35 32 30 31 31
35 36 33 32 34 34 33 33 35 38 40 41 42 41 37 35 33 34 33 33 33 33
31 32 32 32 31 32 34 38 40 41 41 42 39 37 35 34 32 32 33 32 33 33
29 30 29 30 31 31 33 35 36 37 36 36 35 34 32 31 31 31 31 31 31 30
29 27 28 29 30 31 30 30 30 31 31 31 31 31 30 30 28 28 27 26 28 27
26 25 28 28 28 29 28 28 29 28 29 31 31 29 29 28 27 26 25 26 27 28
26 27 29 28 29 28 28 28 28 29 31 31 30 27 26 25 26 26 25 26 26 27
33 32 31 29 30 32 31 30 30 29 28 27 26 23 28 27 25 25 25 26 25 25
36 36 36 36 36 34 31 28 25 25 25 24 23 32 30 29 26 25 24 24 23 23
40 38 37 36 34 28 25 23 22 22 22 23 25 28 28 28 24 25 25 24 24 23
37 35 31 27 25 22 21 20 20 21 23 23 24 28 27 28 26 25 25 25 25 24
26 25 24 21 20 20 19 19 19 22 24 25 25 27 25 25 23 24 25 26 26 26
25 23 21 20 20 19 18 19 23 25 24 24 23 25 24 24 25 24 24 24 24 25
24 22 21 19 18 18 19 22 17 16 19 21 23 22 25 24 24 25 24 24 24 25

GFSNIL_sfc_dewp_003.txt.gz
Dewpoint
36 38 39 39 37 37 34 34 36 38 39 40 40 41 41 41 40 40 38 37 33 30
34 34 35 33 34 34 34 36 39 40 41 41 40 41 42 40 38 36 35 34 32 32
33 32 32 33 33 33 36 39 40 40 40 40 41 40 40 37 35 34 34 33 32 32
34 31 30 31 32 34 36 36 35 34 35 38 38 37 36 34 32 32 31 30 30 29
33 30 28 30 30 32 30 30 30 30 31 32 32 31 30 30 29 28 27 27 27 27
28 26 27 28 30 29 28 27 28 27 28 29 30 29 28 28 27 27 27 27 27 28
24 26 28 28 30 32 32 29 29 29 30 30 28 26 26 26 25 25 25 26 25 25
33 32 32 36 37 35 34 32 31 30 27 26 25 24 27 25 25 24 24 25 25 24
39 39 39 38 38 37 37 35 28 25 24 24 23 32 29 29 26 25 24 23 23 23
38 39 38 38 37 36 29 25 23 23 24 25 25 28 28 28 26 25 24 24 24 23
31 30 29 27 24 23 22 21 21 23 25 25 25 27 27 27 24 24 24 24 24 24
28 25 24 22 21 21 20 20 22 25 25 24 23 25 24 23 21 22 22 24 24 24
25 24 22 21 19 19 20 22 24 23 23 23 21 24 24 23 23 23 23 23 23 24
25 24 22 19 20 20 22 22 18 16 18 20 22 22 24 24 24 23 23 23 23 25

GFSNIL_sfc_dewp_006.txt.gz
Dewpoint
35 35 35 35 36 36 34 35 38 39 40 39 39 40 40 40 40 41 40 38 37 37
35 35 35 34 34 34 34 38 39 39 39 39 40 41 40 39 38 37 37 37 37 36
35 35 35 33 33 33 35 38 38 38 37 37 36 38 40 40 40 38 37 36 35 34
35 34 33 32 32 33 36 36 33 33 34 35 37 37 37 36 35 33 32 31 30 29
33 29 29 30 31 32 30 29 29 30 30 31 30 31 31 30 29 28 27 27 27 27
27 26 28 28 31 32 32 31 30 29 29 30 31 30 28 27 27 26 27 27 26 27
31 29 32 35 35 35 34 33 32 33 32 32 28 26 26 26 26 25 24 25 24 24
37 37 36 36 37 36 36 36 37 36 30 27 25 23 26 25 24 24 24 24 23 23
39 39 37 37 37 37 36 36 37 32 24 24 23 30 29 29 27 26 24 23 23 23
33 35 35 36 36 34 30 25 23 23 24 25 25 28 28 27 26 25 25 23 23 23
30 28 26 24 23 23 22 21 21 23 25 24 22 25 25 25 24 23 23 23 23 23
25 24 24 22 21 21 20 21 23 25 23 21 21 24 24 24 22 22 22 23 24 24
25 24 22 20 20 20 21 23 22 20 21 21 21 23 24 23 22 22 24 23 24 24
24 23 20 20 20 20 21 21 17 15 18 20 21 21 24 23 23 24 24 24 23 25

GFSNIL_sfc_dewp_009.txt.gz
Dewpoint
40 39 38 38 38 38 37 37 41 41 41 41 41 41 42 42 40 39 39 37 37 36
40 39 38 39 37 36 37 39 41 42 41 41 41 41 40 41 39 38 37 37 37 37
38 38 37 34 35 36 38 41 41 38 36 35 36 35 37 38 38 38 38 36 37 36
38 34 31 33 35 36 38 36 33 32 33 34 34 34 35 35 34 33 32 32 31 29
33 30 31 33 33 35 33 32 32 32 35 35 34 33 31 30 29 27 26 26 27 25
33 31 37 37 38 38 37 36 37 37 38 37 32 29 28 27 27 27 27 27 27 26
36 36 37 38 38 38 37 36 36 36 36 37 33 27 25 25 26 27 26 26 25 24
39 38 38 35 34 35 35 34 35 36 34 27 25 22 28 26 26 26 26 25 23 23
31 31 32 33 34 34 31 27 25 24 24 26 23 30 30 29 26 25 23 22 22 21
32 28 27 25 24 24 24 24 23 24 25 25 24 24 25 25 22 22 22 21 20 19
28 25 25 24 23 22 22 22 22 24 23 21 19 23 24 24 23 24 23 21 21 21
25 24 24 22 21 22 22 22 22 20 20 20 20 22 23 24 25 24 23 22 22 22
24 23 22 22 21 21 21 20 20 19 20 21 23 22 23 23 23 24 22 23 23 24
22 23 23 21 21 20 19 23 25 25 25 24 22 23 22 22 24 24 24 23 23 26

GFSNIL_sfc_dewp_012.txt.gz
Dewpoint
42 41 38 38 36 36 36 37 40 42 41 41 41 40 41 43 42 39 39 38 38 38
42 40 38 37 37 36 38 37 41 41 41 39 38 38 38 39 39 39 38 39 39 37
40 38 36 36 36 38 39 40 40 39 36 36 38 39 39 38 36 36 37 34 33 32
38 35 35 36 36 37 37 34 33 33 35 37 39 39 38 36 33 31 30 29 27 26
36 35 35 36 36 37 36 36 35 37 39 40 39 37 34 33 30 27 26 26 25 23
36 36 36 36 36 37 36 36 38 38 38 38 37 35 32 31 29 27 26 25 24 24
37 37 37 35 34 34 34 33 33 33 32 31 27 25 25 24 26 26 24 26 27 26
34 32 31 31 30 30 30 26 25 25 25 25 24 22 28 26 25 25 24 25 23 25
31 30 29 29 28 26 23 23 24 24 24 25 20 26 25 25 23 22 21 21 21 21
30 29 27 24 20 21 23 24 24 24 24 24 24 24 24 24 21 21 21 22 20 18
27 26 23 20 20 23 23 23 23 24 23 23 20 23 23 23 23 23 23 21 20 20
26 24 19 19 22 23 23 23 22 22 22 22 22 24 23 23 24 23 23 21 21 22
25 22 19 22 23 24 22 21 22 24 24 24 25 23 22 22 23 25 24 24 23 25
24 21 21 23 24 23 22 24 28 29 27 26 24 23 21 21 23 25 23 23 24 25

GFSNIL_sfc_dewp_015.txt.gz
Dewpoint
42 40 39 39 37 36 36 38 39 39 42 42 43 42 41 42 41 39 40 38 38 38
41 40 39 38 37 37 38 36 40 42 42 41 40 40 41 40 40 40 39 39 39 37
39 39 37 37 36 36 37 37 36 38 39 39 39 39 39 38 38 38 39 39 38 38
37 36 35 35 36 37 37 37 36 36 37 39 38 38 39 39 38 37 35 33 31 30
33 34 34 35 36 36 37 36 37 39 39 37 37 37 38 37 34 33 33 33 31 29
32 33 35 36 35 33 32 32 32 33 35 34 33 28 26 25 27 26 27 27 26 24
32 32 33 32 31 30 28 26 24 23 24 25 23 22 23 24 24 24 23 25 24 24
31 31 31 31 28 27 25 22 21 22 23 24 22 20 26 24 23 23 22 23 21 24
30 31 31 29 27 23 22 21 23 23 23 23 18 27 25 24 22 20 20 21 21 21
31 31 28 25 20 20 22 23 23 23 22 22 23 24 24 25 22 21 21 22 21 19
30 29 25 23 20 22 22 23 23 23 23 24 22 26 25 24 22 22 22 21 21 21
29 28 24 22 21 22 22 23 22 22 24 24 25 27 26 23 23 22 21 20 22 22
26 25 24 22 22 23 22 21 23 25 25 26 26 27 24 24 24 24 23 23 21 25
32 29 24 22 23 22 22 25 30 31 29 26 27 25 24 22 24 23 25 23 24 26

GFSNIL_sfc_dewp_018.txt.gz
Dewpoint
45 43 42 41 39 39 39 39 41 41 43 42 42 41 41 42 41 40 41 40 39 38
44 43 41 40 40 40 40 37 38 39 41 41 41 40 40 39 39 39 40 40 39 38
40 40 40 39 39 39 38 38 37 38 39 40 40 39 39 38 38 39 40 39 39 38
39 38 39 39 38 38 38 36 37 37 39 38 38 38 38 39 37 37 35 37 36 35
36 36 38 37 37 37 36 36 35 34 33 34 36 36 37 35 35 34 33 33 33 33
34 35 35 35 36 36 34 33 31 28 27 27 28 26 27 27 28 26 25 25 25 26
35 34 34 34 34 34 32 29 27 27 27 28 25 24 26 25 26 25 23 25 24 24
34 33 34 35 34 33 31 27 27 26 27 27 25 22 26 25 24 24 23 23 22 23
33 33 34 34 34 32 28 27 27 27 26 27 20 27 26 26 24 23 22 21 21 23
34 32 34 32 29 27 27 27 27 27 26 26 27 28 27 26 23 22 21 21 21 21
33 32 31 30 29 28 27 27 26 26 26 26 24 30 28 27 23 22 22 21 20 21
34 29 31 30 29 27 26 26 26 26 27 26 26 29 29 30 24 24 22 21 22 22
34 36 35 35 30 27 26 25 29 28 28 29 27 29 28 27 25 22 22 23 23 24
34 35 35 33 27 26 26 28 30 29 29 27 27 26 26 26 25 23 22 22 22 23

GFSNIL_sfc_dewp_021.txt.gz
Dewpoint
41 41 39 37 37 37 38 38 37 38 40 41 41 40 39 39 39 39 38 37 38 38
39 39 37 36 37 38 37 36 36 37 38 40 40 39 38 38 37 37 37 38 40 40
36 36 36 38 36 36 36 36 35 36 38 39 39 38 37 37 37 37 37 37 37 36
33 34 37 37 36 35 35 35 35 36 35 36 36 36 36 36 36 36 36 34 33 33
32 33 35 35 35 34 34 33 33 32 29 29 28 30 31 31 28 28 26 26 26 26
31 33 33 32 34 33 32 31 28 27 27 28 29 27 27 28 27 26 26 25 24 23
31 33 32 32 32 32 31 28 25 26 27 28 27 26 26 25 25 25 24 25 25 23
34 34 32 34 36 34 30 28 25 25 27 27 25 23 25 25 24 24 23 24 22 23
36 35 36 36 35 35 29 24 24 25 26 26 23 28 27 25 23 23 22 21 21 22
35 36 37 37 37 33 25 24 25 25 26 26 26 29 27 27 24 23 21 21 21 19
35 35 36 37 35 30 26 24 25 26 26 26 25 30 30 30 26 24 23 22 21 21
37 36 36 36 34 34 28 27 28 27 27 27 26 29 30 28 26 26 24 23 22 21
34 36 36 34 34 32 26 28 28 28 27 28 25 27 25 27 23 20 22 22 22 23
36 36 36 34 32 27 25 27 26 25 25 25 26 23 23 23 23 21 23 21 20 22

GFSNIL_sfc_dewp_024.txt.gz
Dewpoint
40 39 37 36 36 38 37 36 36 37 39 40 40 39 39 38 37 36 36 35 36 37
39 38 37 36 37 37 36 36 35 35 37 39 39 38 38 36 36 36 35 35 37 37
34 36 37 37 36 36 35 35 34 33 35 36 37 37 36 35 35 35 35 36 33 33
32 33 37 36 36 36 35 35 34 34 34 29 30 31 31 32 32 30 27 26 27 26
32 32 36 36 36 35 34 34 33 33 27 27 27 27 27 28 27 26 25 26 25 25
30 31 33 34 34 35 35 33 35 28 27 27 27 27 27 26 25 24 24 24 24 24
32 33 33 33 34 36 38 37 33 27 27 28 27 25 25 24 24 24 23 25 24 24
35 34 32 33 35 38 37 36 34 29 27 27 26 23 25 24 24 23 23 24 23 22
35 35 36 37 37 36 37 36 28 28 27 26 23 29 27 27 24 24 22 22 21 22
35 35 35 36 37 36 34 33 32 27 26 26 25 29 30 31 27 25 24 22 22 21
36 35 35 35 35 35 34 33 27 27 26 25 25 29 30 29 26 25 25 24 23 22
34 35 36 35 34 33 30 26 27 27 26 25 25 26 25 27 23 23 22 22 22 20
34 34 34 33 32 31 27 27 27 26 26 25 23 22 23 22 23 18 20 21 20 21
30 32 33 33 33 29 27 26 24 22 23 23 22 21 20 20 20 20 21 19 20 21

GFSNIL_sfc_dewp_027.txt.gz
Dewpoint
39 38 37 36 36 36 37 36 36 34 39 39 39 39 38 37 36 35 34 33 33 34
40 39 38 37 36 37 37 36 36 34 36 37 39 38 37 36 35 34 34 33 33 33
35 36 37 37 36 37 36 36 35 34 34 36 36 36 35 34 34 33 32 32 26 26
34 33 35 36 37 36 36 35 35 35 35 32 30 30 30 29 29 27 25 25 25 25
32 31 32 35 36 36 35 36 34 35 36 35 29 28 27 27 26 25 24 24 24 24
32 33 33 33 34 34 35 35 36 36 36 31 29 28 28 27 25 23 24 24 24 23
33 33 33 32 33 34 35 36 35 36 31 31 30 27 25 23 23 24 24 25 24 23
34 34 35 35 36 36 36 36 37 35 32 30 27 23 24 25 25 24 24 24 23 23
34 34 34 34 35 36 37 33 34 34 31 25 23 29 29 30 27 25 24 24 24 23
35 34 34 35 34 34 33 33 32 30 26 25 26 29 30 29 26 26 25 24 23 20
33 33 34 34 33 34 34 30 28 26 25 25 25 27 25 27 24 22 22 20 20 20
31 33 33 33 32 32 30 27 27 26 25 24 21 22 22 23 22 21 20 20 20 20
30 31 31 31 31 32 29 27 26 25 24 22 21 21 20 20 20 14 20 20 19 21
28 28 28 29 30 28 26 25 24 23 23 22 21 20 20 20 19 20 20 19 20 21

GFSNIL_sfc_dewp_030.txt.gz
Dewpoint
39 38 38 36 36 36 35 36 36 35 35 38 38 38 38 37 36 35 34 32 32 33
39 39 38 37 37 36 36 37 36 35 34 36 37 39 39 38 35 34 34 33 32 32
35 34 35 36 36 36 37 36 35 35 35 36 35 34 37 36 34 33 33 33 28 26
33 32 32 33 35 36 36 36 35 35 35 34 34 34 32 31 30 29 27 25 25 25
31 32 32 32 33 34 35 35 35 34 34 35 36 32 29 29 27 25 24 24 24 24
31 32 32 32 32 33 34 34 35 35 36 36 32 29 29 27 25 23 24 24 24 24
32 33 32 32 33 34 35 35 35 36 37 34 30 29 25 23 24 24 24 25 25 24
33 33 33 33 34 35 35 35 34 33 32 30 26 23 25 26 26 26 26 25 25 25
33 33 33 34 34 34 34 34 34 32 29 25 24 30 30 29 26 25 25 23 23 23
33 33 32 33 33 32 32 30 30 27 25 24 26 29 26 27 24 22 21 19 19 18
31 31 32 32 34 31 32 32 28 25 24 24 24 23 23 24 23 21 20 19 19 19
30 29 30 30 30 30 31 30 27 25 24 21 20 22 21 21 21 20 19 19 19 20
28 27 27 27 28 30 30 27 26 24 23 21 20 20 20 21 20 15 20 20 20 21
27 27 26 25 27 28 26 25 23 23 23 21 21 20 20 22 20 20 21 20 20 21

GFSNIL_sfc_dewp_033.txt.gz
Dewpoint
43 42 41 41 40 39 39 39 41 40 39 38 39 41 41 39 39 41 40 38 37 36
41 41 41 40 40 39 40 37 39 40 39 39 39 39 39 37 37 38 38 37 37 35
38 37 37 37 37 37 37 38 38 38 39 39 38 37 36 35 34 33 35 34 34 31
35 35 35 35 35 36 37 36 36 37 38 37 36 37 36 35 32 30 30 29 28 27
34 33 34 34 34 34 33 35 35 37 36 36 37 37 33 29 30 29 28 26 26 26
33 33 33 32 33 34 35 36 38 37 37 35 31 31 30 30 28 25 26 26 26 25
34 33 33 33 34 35 36 36 36 36 37 35 32 30 27 25 26 27 27 26 25 25
34 33 33 33 34 36 35 34 35 34 34 30 26 25 28 28 27 25 22 21 19 19
33 33 33 33 34 35 34 34 34 33 29 27 25 30 27 27 24 20 17 16 16 16
31 31 32 32 33 32 34 33 34 31 27 26 27 25 24 26 21 19 17 16 15 15
30 30 30 30 29 31 35 34 33 28 26 25 20 23 22 22 19 19 17 16 17 16
30 29 28 28 29 30 32 34 32 27 25 22 20 21 21 21 22 20 19 18 18 18
30 28 28 28 27 30 33 33 29 25 24 22 21 19 20 21 24 24 21 19 17 18
28 28 28 27 26 27 28 28 28 26 25 23 22 21 20 21 24 22 21 18 17 17

GFSNIL_sfc_dewp_039.txt.gz
Dewpoint
41 39 38 37 37 36 35 34 35 33 33 33 32 33 35 35 38 38 41 39 35 32
44 39 36 37 37 34 34 30 31 33 32 32 32 33 34 34 36 39 39 39 35 34
41 37 35 35 33 32 32 32 31 31 31 33 33 33 33 35 37 37 38 34 33 32
36 34 33 33 32 30 32 31 29 30 32 32 31 35 37 36 35 33 33 33 32 31
34 30 31 31 29 31 31 30 30 31 31 32 32 33 33 33 33 32 30 29 27 25
30 30 30 28 30 31 31 30 31 31 31 32 32 32 33 31 31 28 27 25 25 24
29 30 29 29 31 32 30 31 31 31 31 32 31 29 28 25 27 26 23 24 24 22
28 30 30 31 32 31 32 32 31 30 31 31 29 25 29 26 26 24 23 23 20 20
26 29 30 31 31 30 30 30 30 30 31 31 26 28 25 25 25 23 21 21 20 19
28 28 28 27 27 28 29 31 31 31 32 30 30 26 24 23 23 23 22 22 20 18
27 27 26 26 27 29 31 31 30 31 32 30 28 26 23 22 23 23 23 23 21 20
24 24 25 26 27 30 29 29 29 30 31 31 30 25 23 21 24 24 23 22 21 20
24 24 24 26 28 29 28 27 27 28 31 32 30 26 24 22 25 26 24 23 20 23
24 24 26 28 29 28 28 28 31 32 32 30 30 29 25 23 24 26 24 22 21 21

GFSNIL_sfc_dewp_042.txt.gz
Dewpoint
46 45 44 44 41 40 39 39 38 37 37 37 36 36 36 37 37 37 40 38 39 38
44 43 42 40 39 39 38 33 37 36 35 35 36 37 37 36 37 38 38 38 38 35
44 42 40 39 38 36 35 35 35 35 34 35 36 36 38 37 37 36 37 35 34 34
41 40 38 37 35 34 34 34 33 33 34 34 34 35 35 35 34 34 34 33 32 32
40 38 37 36 34 33 33 34 33 33 33 33 33 33 34 34 33 32 32 31 29 28
38 34 34 34 32 33 33 33 33 33 34 33 34 32 33 33 32 31 29 29 27 26
36 35 34 32 33 34 34 33 33 34 34 34 32 31 31 30 29 28 26 27 25 25
34 34 33 33 34 35 35 33 34 34 34 32 32 28 30 27 27 27 25 25 24 22
31 32 33 33 35 35 34 33 33 33 33 32 29 30 28 26 24 25 25 24 23 22
31 31 32 31 30 30 32 34 34 33 33 33 32 29 26 24 23 24 25 24 23 21
30 30 30 30 30 32 33 33 33 32 33 33 31 30 27 24 22 25 25 25 23 22
27 27 28 28 31 32 32 32 31 31 32 32 31 29 26 24 24 25 25 24 24 23
28 27 27 29 31 32 32 30 30 30 32 32 31 29 27 25 27 25 26 25 23 23
26 27 28 30 30 30 30 30 31 30 31 31 31 32 28 27 25 26 26 25 24 25

GFSNIL_sfc_dewp_045.txt.gz
Dewpoint
42 42 41 42 40 40 39 37 35 35 34 33 34 34 34 35 35 36 36 36 37 38
42 41 39 39 39 38 37 34 35 34 31 32 33 34 37 36 36 35 36 36 35 34
41 39 39 38 37 36 35 34 33 31 31 32 34 35 34 35 34 34 34 34 32 33
39 40 40 38 37 35 34 33 31 31 31 32 34 33 33 33 33 32 32 32 31 30
40 41 37 36 35 35 33 33 31 32 32 33 33 32 31 33 33 32 31 31 29 27
42 39 36 35 35 33 33 31 31 32 33 33 33 30 31 32 32 30 29 26 26 24
39 37 34 33 33 33 32 31 32 33 34 35 32 31 32 30 28 27 26 26 26 25
38 35 34 34 34 34 33 32 32 33 34 33 31 29 29 27 26 25 25 25 25 22
35 33 35 33 33 33 33 32 33 32 33 32 30 31 30 27 24 24 24 23 24 23
34 33 32 31 30 29 30 31 32 31 32 33 31 31 30 28 23 23 23 24 23 22
31 30 30 29 29 30 32 32 31 31 31 33 32 32 31 27 22 23 24 24 23 22
31 30 30 29 32 32 31 31 31 30 30 32 31 32 30 26 24 24 24 25 24 24
31 30 31 31 31 31 31 30 30 29 31 32 30 31 30 27 26 25 25 24 24 23
32 31 30 30 29 28 29 29 30 30 30 30 30 29 31 29 26 25 25 25 24 24

GFSNIL_sfc_dewp_048.txt.gz
Dewpoint
46 46 46 44 42 40 39 38 37 38 36 34 34 34 36 36 36 34 35 34 34 36
42 42 41 40 40 39 38 37 37 33 33 33 35 36 35 34 33 33 34 34 33 33
44 43 40 39 39 38 37 35 35 34 32 33 35 34 34 33 33 32 32 33 32 31
42 43 43 40 39 36 38 37 34 32 31 32 34 33 33 31 32 32 32 31 30 29
41 43 41 39 39 39 36 35 33 33 31 33 33 33 31 31 32 32 31 30 27 26
44 41 41 38 37 37 34 33 31 31 32 33 34 32 31 32 32 31 28 26 24 24
43 40 36 37 35 34 33 31 31 32 33 34 34 32 32 32 32 28 26 26 26 25
42 37 36 35 34 34 33 31 31 33 34 34 34 31 32 29 28 26 25 26 25 25
36 36 36 35 34 34 33 31 32 33 33 33 31 32 33 29 26 25 24 23 24 24
36 35 35 33 31 29 30 31 32 32 32 32 33 33 33 31 25 24 24 23 24 23
33 32 32 31 31 33 33 32 32 32 32 31 33 33 33 31 24 23 24 25 25 23
33 32 31 36 34 33 31 31 31 31 30 30 32 34 33 30 24 23 24 25 25 24
33 37 36 33 32 31 30 29 29 29 30 31 30 32 33 31 25 25 26 25 24 26
37 33 31 30 29 29 29 28 28 28 29 29 30 29 33 32 26 25 26 25 24 24

GFSNIL_sfc_dewp_051.txt.gz
Dewpoint
50 48 47 47 45 41 38 38 38 40 39 36 35 36 37 36 35 33 34 33 33 34
48 47 45 43 42 41 39 39 40 38 37 37 38 37 34 34 33 33 34 34 32 32
44 44 41 42 41 39 41 40 39 38 38 35 36 35 34 33 33 32 33 32 31 31
43 42 42 40 39 38 40 40 41 37 35 34 34 34 32 32 32 32 32 31 30 29
42 41 40 38 38 42 44 41 36 36 33 34 34 33 33 31 31 31 31 31 27 26
42 41 40 40 43 43 38 37 35 33 32 32 33 33 33 31 31 31 31 30 25 24
43 43 43 43 40 37 35 33 32 32 33 34 34 33 33 31 32 32 30 27 26 25
44 42 40 38 35 34 34 33 33 33 33 34 34 33 32 31 29 29 27 27 26 25
38 36 37 37 36 35 34 33 33 33 34 33 31 33 34 32 28 27 25 25 24 24
37 36 35 33 32 31 32 36 34 32 33 32 32 34 34 34 27 25 25 24 23 24
34 33 33 33 34 38 38 33 31 31 31 31 31 34 34 33 28 24 24 24 25 25
33 33 34 37 38 37 32 31 30 30 29 29 29 33 34 33 28 24 24 24 25 28
34 37 39 37 34 31 31 29 29 28 28 30 29 32 34 33 27 25 25 26 26 29
39 35 33 30 29 29 29 28 28 28 28 28 29 29 33 34 28 27 26 26 26 25

GFSNIL_sfc_dewp_054.txt.gz
Dewpoint
53 50 48 47 46 44 40 38 38 39 39 38 37 37 38 37 36 35 35 33 34 34
53 49 47 47 44 41 39 39 39 39 39 40 41 39 37 36 34 34 33 34 34 33
52 49 47 44 42 40 41 40 39 40 42 42 39 37 36 34 34 33 33 33 32 31
48 46 44 43 42 42 41 41 41 42 41 37 37 36 35 34 33 33 32 33 32 31
45 46 46 43 43 42 43 43 44 40 36 35 36 35 34 33 31 32 32 32 31 30
46 45 43 42 42 44 44 42 38 37 36 34 35 35 34 34 33 32 31 31 31 27
45 44 41 42 44 43 39 38 36 35 35 35 34 34 34 33 32 31 31 31 29 26
45 43 43 43 39 39 38 35 34 34 35 35 34 33 33 32 31 31 30 29 27 26
42 41 38 37 38 37 35 33 33 36 35 34 32 33 35 33 30 29 27 27 26 25
38 37 36 34 33 32 35 39 38 38 34 32 32 34 35 34 31 28 27 26 25 23
33 33 34 36 38 39 39 39 37 33 31 31 30 33 34 34 31 28 27 26 25 24
35 36 37 38 39 40 37 33 31 30 29 29 29 32 33 33 30 28 26 25 25 25
40 40 40 39 36 34 31 30 29 28 28 29 29 31 33 33 29 28 28 27 25 28
38 35 34 31 29 29 29 28 28 28 28 28 28 29 32 33 31 30 29 27 27 27

GFSNIL_sfc_dewp_057.txt.gz
Dewpoint
55 55 54 52 50 50 49 46 45 43 41 39 39 40 41 41 39 39 39 39 38 34
56 55 54 51 51 50 48 43 43 41 39 40 42 43 41 39 37 37 38 38 37 35
56 56 54 52 50 47 44 42 41 41 41 43 44 41 39 37 37 37 36 35 36 35
57 56 53 50 47 44 43 43 40 42 44 44 40 38 38 37 36 36 35 35 35 35
56 53 51 48 45 44 42 43 43 44 43 39 39 38 37 36 34 35 34 34 34 34
51 50 48 46 45 45 45 44 44 41 40 39 38 38 38 36 35 35 34 34 34 33
48 47 46 46 45 45 44 42 40 40 39 40 39 36 35 34 35 35 34 35 34 34
46 45 44 45 43 41 41 40 40 40 39 37 36 36 36 34 35 35 34 35 34 34
43 43 41 40 40 41 40 38 37 37 37 38 36 35 35 35 35 34 33 32 33 32
39 39 39 37 36 36 38 40 40 40 39 39 40 35 35 35 34 33 33 32 31 29
35 35 36 39 41 41 41 41 41 40 39 36 33 34 34 34 33 33 33 32 32 31
39 39 40 40 40 41 41 39 36 34 33 33 33 33 33 32 32 32 32 31 31 30
41 41 40 39 36 35 34 32 31 30 32 32 32 32 33 32 33 34 32 32 31 31
34 33 32 32 32 31 30 31 32 31 32 31 31 31 32 33 32 34 33 32 31 31

GFSNIL_sfc_dewp_060.txt.gz
Dewpoint
60 59 57 57 57 56 53 50 51 49 48 47 45 42 42 42 42 41 40 39 40 35
59 58 57 57 57 55 52 52 51 49 48 44 42 43 43 44 42 40 41 41 39 35
58 58 58 57 56 54 53 54 49 47 42 43 44 45 43 42 40 38 39 37 37 35
58 58 58 57 55 53 52 49 47 43 43 44 45 42 41 39 39 38 37 36 35 35
58 57 57 56 53 51 48 45 44 44 45 44 42 40 40 39 39 38 36 35 35 34
57 56 53 50 47 45 45 45 45 46 44 41 40 39 40 41 39 36 35 34 34 34
51 49 47 46 46 45 46 45 45 42 41 41 41 41 41 38 37 36 34 35 35 34
48 47 46 46 45 45 45 42 41 41 41 42 41 40 39 37 38 36 34 35 34 35
45 45 44 44 44 44 43 41 40 40 40 40 39 38 37 37 39 36 34 33 33 32
43 43 43 41 39 37 38 38 39 40 40 41 41 38 38 37 34 34 34 33 32 29
40 38 38 39 40 40 41 40 41 42 41 40 36 35 34 34 32 32 31 31 31 31
40 39 39 40 41 42 42 41 39 36 34 34 33 34 34 32 32 30 31 30 30 30
40 40 39 38 37 37 35 32 31 30 30 31 31 32 34 32 33 32 32 32 30 31
35 34 34 32 31 31 30 30 32 32 33 33 33 33 33 33 32 32 33 32 32 32

GFSNIL_sfc_dewp_063.txt.gz
Dewpoint
60 59 59 58 59 58 58 58 57 55 52 51 52 51 49 44 43 43 43 42 41 39
61 61 60 60 59 58 59 56 54 52 51 51 52 46 44 44 44 44 43 43 42 39
61 61 61 60 59 58 57 55 52 51 51 47 44 44 45 44 43 41 41 40 39 38
60 60 59 59 58 58 57 55 53 51 45 45 45 46 45 42 41 40 40 39 39 37
59 59 59 58 58 57 54 50 47 45 46 46 45 44 42 40 40 39 39 40 39 37
58 57 54 50 49 46 46 46 46 46 45 45 43 41 41 41 41 42 42 40 38 37
52 50 48 47 46 45 45 45 45 45 42 42 41 41 41 41 42 41 40 40 38 37
49 48 47 47 46 46 45 44 43 42 42 42 41 41 42 41 41 40 39 39 37 37
47 46 46 45 44 44 43 42 41 41 41 41 41 39 39 39 38 39 38 37 35 35
45 45 45 44 43 42 42 41 41 40 40 40 41 39 38 38 39 36 33 33 33 31
43 41 41 40 41 41 40 40 40 40 41 41 40 39 38 35 33 32 32 31 31 32
42 41 40 40 40 41 40 41 41 40 37 34 33 35 34 32 30 29 30 28 29 29
40 40 41 41 41 41 39 34 32 30 30 30 29 34 34 32 32 32 32 31 30 31
39 38 37 35 33 31 29 29 33 32 33 32 31 30 31 30 26 28 28 27 27 28

GFSNIL_sfc_dewp_066.txt.gz
Dewpoint
58 59 58 58 59 58 58 59 58 56 55 54 53 53 52 49 46 46 46 43 42 42
60 59 59 60 60 59 59 59 58 56 54 52 52 52 48 46 44 45 43 42 42 42
60 61 61 61 60 60 59 56 54 52 52 51 48 46 45 46 44 43 42 42 42 41
61 61 61 60 59 59 57 57 54 53 50 47 45 45 44 43 41 41 41 41 40 39
61 60 59 58 57 57 55 54 51 48 46 45 45 45 43 41 41 40 40 40 41 41
59 57 53 51 50 49 48 47 46 46 45 45 44 42 41 41 41 41 41 41 41 41
51 50 48 47 48 46 46 46 46 45 44 42 42 41 41 41 42 42 42 42 41 40
49 48 47 46 47 46 46 45 43 43 42 42 41 41 41 42 42 41 40 40 40 39
47 47 46 46 44 44 43 42 42 41 41 41 42 40 40 40 40 39 38 39 39 38
46 46 45 44 43 42 42 42 42 41 41 41 41 39 39 38 39 39 37 35 34 32
45 44 43 43 42 43 42 40 40 40 40 41 40 39 39 37 37 34 33 32 32 31
42 41 41 41 40 41 41 41 41 41 41 40 35 35 34 32 33 32 32 31 31 29
42 41 41 41 41 41 41 40 39 34 34 30 32 32 31 28 29 28 27 27 25 28
41 41 41 41 40 38 34 35 33 32 33 32 31 30 28 27 26 25 24 23 23 24

GFSNIL_sfc_dewp_069.txt.gz
Dewpoint
54 54 55 52 54 57 58 58 57 55 54 53 53 52 52 50 47 46 45 45 44 43
54 57 54 54 57 58 58 57 56 56 53 52 51 51 49 47 46 46 45 44 43 42
56 57 58 57 57 58 58 57 55 55 53 52 50 48 47 45 45 44 43 43 42 42
58 59 59 59 59 59 58 56 54 53 52 49 47 46 45 44 44 42 42 42 42 41
59 59 59 59 59 57 56 54 53 51 49 47 46 45 44 42 42 41 41 41 40 39
57 58 58 54 53 53 51 51 49 48 47 45 45 43 42 42 42 41 40 41 40 41
51 51 50 49 49 48 47 47 46 46 45 44 43 42 42 42 41 41 42 42 43 42
48 49 48 47 46 46 46 45 44 44 43 43 42 42 41 41 41 42 42 41 40 40
46 46 45 45 45 44 44 43 43 42 42 41 41 39 40 41 41 40 39 38 38 38
46 45 45 44 43 42 42 42 42 41 41 41 41 39 40 39 39 38 37 36 33 32
45 44 43 42 42 42 41 40 39 40 40 40 40 38 38 37 36 35 32 32 30 29
44 43 42 42 41 40 39 39 39 40 40 37 33 34 33 32 31 28 27 27 26 25
42 42 40 40 39 40 40 40 41 39 34 32 29 31 31 29 27 24 23 23 24 26
41 40 40 41 40 40 38 33 32 31 32 29 29 28 27 25 23 24 24 23 22 22

GFSNIL_sfc_dewp_072.txt.gz
Dewpoint
53 52 53 50 51 53 54 57 59 59 57 55 55 53 52 52 49 48 48 47 46 46
53 54 53 53 51 54 56 57 56 57 56 55 53 52 51 49 48 48 46 46 45 44
51 55 56 55 55 56 56 56 56 55 53 53 53 51 50 48 46 46 45 45 44 43
53 54 57 56 57 57 57 57 57 56 54 53 52 50 48 46 46 45 44 43 42 42
57 58 57 58 58 58 57 57 55 55 53 51 50 48 46 45 44 43 42 42 42 41
58 58 58 59 58 55 54 55 53 51 50 48 47 45 45 44 43 42 42 42 40 40
55 55 56 55 54 53 53 50 49 50 48 46 44 44 43 43 42 42 41 41 42 42
50 50 49 49 48 48 48 48 48 45 44 44 43 43 43 42 41 41 42 42 42 41
48 48 47 46 45 45 45 45 44 44 43 42 42 39 40 41 41 41 40 39 38 37
47 46 45 45 44 44 43 43 42 42 42 41 41 39 40 39 40 39 37 33 31 29
46 45 44 44 43 43 42 42 41 41 41 41 40 39 39 37 37 32 30 28 26 25
44 43 43 42 42 41 40 40 40 40 40 38 38 37 36 33 29 27 24 24 24 24
43 43 42 41 40 39 40 40 40 39 35 32 31 33 32 28 25 22 21 22 22 23
42 41 40 40 39 39 38 36 33 31 30 28 28 28 27 25 22 23 23 21 21 22

GFSNIL_sfc_dewp_075.txt.gz
Dewpoint
52 52 52 51 52 53 52 53 56 58 58 58 57 56 55 54 53 51 51 49 48 48
53 52 51 52 51 52 53 53 56 58 58 57 54 55 54 53 51 50 49 48 48 48
53 54 54 54 53 52 53 55 56 55 54 54 54 52 52 51 50 49 48 48 47 45
52 52 55 55 54 55 56 56 56 56 55 54 52 51 51 50 48 47 46 45 45 44
54 53 54 56 56 57 57 57 57 57 57 54 52 51 50 48 48 46 46 44 43 42
55 55 55 56 57 57 57 57 58 56 54 53 51 49 48 47 46 45 45 43 42 42
55 56 57 57 57 57 58 56 54 54 53 50 48 47 46 46 45 44 43 42 42 41
54 53 53 55 56 54 53 52 51 49 46 46 46 46 45 44 43 42 42 42 42 43
51 50 49 48 48 47 47 47 46 45 44 44 44 42 41 42 42 42 42 41 38 34
49 48 47 47 46 45 46 45 44 43 43 43 42 39 40 39 41 39 38 35 32 27
48 46 45 45 44 43 43 42 42 42 42 42 41 39 38 37 36 32 29 28 26 24
46 45 44 43 42 42 42 42 42 42 41 41 40 37 36 33 30 25 23 24 24 23
45 44 43 42 41 41 42 41 40 36 35 36 36 35 33 29 26 23 22 21 21 23
44 43 42 41 41 40 40 37 32 30 30 29 30 29 28 26 23 23 22 20 20 20

GFSNIL_sfc_dewp_078.txt.gz
Dewpoint
51 51 51 51 51 51 51 52 54 55 56 56 56 55 55 54 54 54 52 52 51 49
53 52 51 52 52 52 52 53 53 54 56 55 55 55 54 55 54 53 54 52 51 49
51 52 52 52 52 52 53 53 54 54 55 54 54 54 54 55 54 52 52 51 50 49
52 53 54 54 53 53 53 53 54 55 56 55 55 54 54 54 51 51 50 49 49 49
52 53 53 54 53 54 54 54 55 56 56 55 55 53 53 51 50 49 48 48 47 46
53 52 52 53 53 54 54 55 55 56 56 56 53 52 52 51 49 49 48 47 46 45
54 54 54 53 54 54 55 56 56 56 55 53 51 51 49 49 47 47 47 47 46 44
53 54 54 54 54 54 54 55 55 52 50 49 48 47 47 47 45 44 45 45 44 43
53 54 54 52 52 52 51 50 50 49 48 46 45 41 42 44 44 45 43 40 36 35
51 50 49 49 48 47 46 46 45 45 44 43 43 41 41 41 43 42 38 34 31 29
49 48 47 47 46 44 44 43 43 43 43 42 40 38 38 37 35 33 31 30 28 27
48 47 46 44 43 43 42 42 42 42 42 40 38 36 34 32 29 27 25 24 24 23
47 46 44 42 42 43 42 41 38 37 38 37 36 34 33 29 26 24 22 20 21 23
44 43 42 42 42 41 37 34 32 30 30 30 31 31 31 28 26 24 22 18 18 20

GFSNIL_sfc_dewp_081.txt.gz
Dewpoint
54 53 53 54 54 54 55 55 56 57 58 58 58 58 58 59 58 58 57 56 55 54
54 54 53 54 54 55 55 54 56 56 57 57 58 58 58 59 58 58 58 58 56 54
54 54 54 55 55 55 56 55 55 56 56 57 57 58 58 58 58 57 57 56 55 55
54 54 55 55 55 55 56 55 55 55 56 56 57 58 58 57 56 55 55 53 52 52
54 54 54 53 54 56 55 55 55 55 55 55 56 56 55 56 55 53 52 52 51 51
52 52 53 52 54 55 55 55 55 55 55 55 56 56 55 55 54 53 52 52 50 49
52 52 52 52 54 55 55 55 55 56 56 56 56 56 55 54 53 52 51 49 49 47
53 53 52 53 55 56 56 56 56 56 57 57 56 54 52 52 50 49 46 45 45 44
52 52 54 54 56 56 56 56 56 56 55 52 50 45 44 47 47 45 44 40 38 37
52 52 54 55 54 55 55 52 50 48 48 46 45 40 41 41 45 43 39 36 34 32
54 54 51 51 51 48 47 46 45 44 44 43 41 39 38 37 37 35 33 33 32 30
52 50 49 48 45 44 44 43 43 43 42 39 37 36 35 33 31 29 27 27 27 25
50 49 47 44 43 43 42 39 38 37 37 36 34 34 33 30 28 26 24 22 23 24
45 44 43 43 42 38 36 34 32 31 31 32 32 32 31 29 26 25 22 18 18 22

GFSNIL_sfc_dewp_084.txt.gz
Dewpoint
56 56 55 54 52 52 53 53 55 57 58 58 58 58 59 59 59 59 59 58 58 57
57 56 56 55 55 54 56 53 57 58 58 58 59 59 59 58 58 59 60 60 59 58
55 56 55 56 56 56 56 56 56 57 57 57 57 57 58 58 58 58 59 60 59 58
56 55 56 56 56 56 58 56 56 56 55 55 54 55 56 58 58 58 58 59 57 57
56 56 56 57 57 58 57 57 55 55 54 54 53 54 55 56 57 57 57 56 56 55
56 56 57 57 57 57 56 55 54 54 54 53 54 53 55 55 56 56 56 56 55 54
56 56 56 56 56 55 54 53 53 54 54 54 53 52 53 55 56 57 56 56 54 53
54 54 54 54 55 54 54 53 53 54 54 55 55 55 56 56 56 56 55 52 50 48
52 52 53 53 53 53 54 54 55 55 56 56 56 49 45 52 54 51 47 42 40 39
52 51 52 52 52 53 55 56 56 57 57 56 52 41 41 42 47 44 40 37 36 34
52 52 51 51 51 55 55 55 52 48 46 45 41 39 38 37 37 36 35 34 33 32
52 52 53 54 54 52 48 46 44 44 42 39 37 36 35 34 32 31 30 30 30 30
54 53 53 49 46 44 43 40 38 37 37 35 35 34 34 32 29 28 28 28 27 27
51 48 46 43 42 39 36 35 33 32 32 33 33 33 32 31 28 26 24 21 21 24

GFSNIL_sfc_dewp_087.txt.gz
Dewpoint
57 54 54 55 53 51 51 52 54 58 57 56 57 57 58 58 59 60 60 60 59 57
57 57 55 55 54 52 50 48 51 56 57 58 58 58 59 59 60 60 61 61 61 59
57 57 57 56 55 55 52 52 53 55 57 58 58 59 59 59 59 59 60 59 60 60
57 58 58 58 57 57 56 55 55 55 57 57 58 58 58 58 58 57 58 59 59 59
57 57 57 58 59 59 57 57 56 56 56 56 56 57 57 57 56 56 57 57 58 58
58 57 58 58 59 58 58 57 57 56 56 56 56 56 56 56 56 56 56 56 57 57
58 58 58 58 57 57 57 57 56 57 56 57 55 54 54 53 55 56 56 57 57 57
57 57 56 58 58 57 57 57 57 56 56 56 55 53 55 54 54 55 56 56 55 52
55 54 56 57 57 58 57 56 56 55 55 56 53 47 45 51 57 56 54 45 41 40
53 53 55 54 54 55 56 57 56 56 55 55 57 43 43 43 49 46 41 39 36 35
52 52 52 52 53 54 56 56 56 56 54 50 43 41 41 39 38 36 35 35 34 33
53 52 52 52 54 55 56 51 48 46 43 39 37 36 36 35 34 32 31 32 32 32
52 52 53 54 53 50 47 42 38 36 37 35 34 34 34 33 32 30 29 29 30 31
52 53 52 47 44 41 38 36 35 33 33 33 33 33 32 32 30 28 27 26 27 29

GFSNIL_sfc_dewp_090.txt.gz
Dewpoint
53 53 53 50 50 50 50 52 54 55 55 54 55 57 57 57 58 58 57 57 57 56
56 53 52 52 51 52 52 52 54 54 55 56 57 57 57 57 57 57 58 58 58 58
56 55 54 54 52 52 51 51 52 53 55 54 55 57 57 57 57 57 58 58 58 58
56 56 54 54 55 53 52 51 51 51 52 54 55 56 57 57 57 57 57 58 57 57
56 57 56 55 55 55 54 52 51 50 50 51 55 56 56 57 56 56 56 56 57 56
57 57 57 57 56 56 54 53 52 50 50 52 53 54 56 56 56 56 56 56 55 55
56 57 56 57 57 57 56 55 54 52 53 53 54 55 55 55 55 55 55 55 55 55
56 57 56 56 57 57 57 56 55 55 54 54 54 55 55 54 54 54 54 54 54 48
57 57 56 56 57 56 57 57 56 56 55 55 54 48 45 50 54 54 52 47 41 39
55 56 56 57 57 56 56 56 56 56 56 55 55 43 43 42 50 46 42 40 38 36
54 55 55 55 55 56 56 56 56 56 55 48 42 39 39 38 39 37 36 37 35 34
54 53 54 54 55 55 55 56 51 47 44 39 37 37 37 36 34 34 34 34 33 33
54 54 53 54 54 49 45 40 38 36 36 36 35 35 36 34 33 31 30 30 30 30
52 51 49 45 42 41 38 35 34 32 33 33 33 34 34 33 31 30 28 28 27 29

GFSNIL_sfc_dewp_093.txt.gz
Dewpoint
52 52 51 49 50 49 48 49 51 53 54 54 54 55 56 56 56 57 56 56 55 54
52 52 51 50 49 50 50 50 54 53 53 53 55 56 56 56 56 56 55 55 56 55
52 52 52 51 50 50 50 50 53 54 54 53 54 56 56 56 56 56 56 57 56 56
54 53 52 52 50 52 52 52 52 53 53 53 54 55 56 55 56 56 56 56 56 57
56 55 53 52 52 51 52 52 51 51 52 53 53 53 55 55 55 56 56 56 55 56
56 56 54 53 53 52 52 51 51 50 51 51 53 54 54 55 55 56 56 56 55 56
55 56 55 54 53 55 54 52 51 50 50 50 50 52 54 54 54 55 55 56 55 56
54 54 55 56 55 54 54 54 53 52 51 50 49 49 53 54 54 55 55 54 52 45
55 55 56 56 57 56 55 55 53 53 52 51 50 45 44 49 54 54 53 47 41 39
55 55 55 56 55 56 57 57 56 55 54 53 52 45 44 44 53 50 47 43 39 37
56 56 55 55 55 55 55 56 57 56 56 52 43 40 40 40 41 39 39 37 36 35
55 56 56 56 55 56 56 55 53 47 44 41 38 37 37 39 38 35 34 34 34 33
55 54 55 55 54 47 47 40 39 36 37 36 35 36 36 36 34 31 30 30 31 32
55 55 52 47 44 41 38 35 34 32 33 34 34 34 34 34 32 30 28 28 28 30

GFSNIL_sfc_dewp_096.txt.gz
Dewpoint
51 51 51 51 51 51 52 53 53 53 53 53 53 53 55 54 54 56 54 54 54 54
52 51 51 51 51 50 50 51 51 51 52 54 53 53 54 54 54 56 55 54 55 55
52 51 51 50 50 50 49 50 52 52 53 54 53 53 54 54 55 55 55 55 55 55
51 52 52 51 50 50 51 50 53 52 53 53 53 54 54 53 54 55 55 55 55 54
52 52 52 51 50 51 51 51 51 52 51 52 52 53 54 54 54 55 54 55 55 55
54 53 52 52 52 50 52 51 52 51 51 51 51 53 53 54 54 55 55 55 55 55
56 55 53 52 52 52 51 51 51 51 51 51 51 51 51 53 54 55 55 55 55 55
55 56 55 54 53 53 52 51 51 50 50 50 50 50 51 52 52 53 54 54 54 53
53 55 56 55 54 54 54 53 51 51 50 49 49 44 43 47 53 53 53 53 43 40
53 53 54 55 55 54 54 54 54 53 52 51 50 43 42 42 51 53 53 49 41 38
54 54 53 53 54 55 55 55 54 54 53 53 52 44 42 40 46 41 40 40 40 38
55 54 54 54 55 55 56 56 56 56 55 54 42 39 40 41 38 35 34 35 35 35
56 56 55 55 55 55 55 53 46 41 40 39 37 37 38 39 35 32 31 31 32 32
49 53 55 55 51 45 42 41 39 37 35 34 35 36 36 37 35 32 30 30 30 31

GFSNIL_sfc_dewp_099.txt.gz
Dewpoint
52 52 52 52 52 53 54 54 55 55 55 55 55 54 54 53 53 53 52 51 51 52
51 51 52 52 52 52 54 54 55 55 55 55 55 55 54 55 53 54 54 52 53 52
51 51 51 52 51 51 52 53 54 54 55 55 55 55 54 53 54 54 55 55 54 54
51 51 51 51 51 50 51 51 52 52 53 53 53 53 53 52 52 54 54 55 54 54
52 51 51 50 51 51 50 51 51 52 52 53 53 53 52 51 51 53 53 54 54 54
51 52 51 51 50 51 50 50 52 52 52 52 52 52 52 52 51 51 52 53 54 54
51 51 52 52 51 51 51 51 50 51 51 52 52 52 52 52 52 52 53 53 54 54
53 52 52 52 52 51 51 51 51 50 51 51 50 50 51 51 52 52 53 53 54 54
55 54 53 52 52 52 51 51 51 51 51 50 49 44 43 47 50 51 51 52 52 45
54 54 55 55 53 52 52 52 51 51 50 50 50 43 42 42 49 51 51 51 48 42
53 53 54 55 55 54 53 53 53 52 51 50 50 43 42 40 47 48 45 47 47 44
55 54 54 54 55 55 54 54 54 54 53 52 51 43 42 41 44 39 36 36 38 38
51 55 54 54 54 54 55 54 54 52 46 47 52 39 41 43 41 34 32 32 33 34
41 45 48 54 55 55 54 44 40 36 35 35 37 37 38 39 39 34 31 30 30 31

GFSNIL_sfc_dewp_102.txt.gz
Dewpoint
52 52 52 53 53 54 54 55 57 57 54 54 55 54 54 53 53 52 52 51 51 52
52 52 52 52 53 54 54 55 55 56 55 55 55 54 54 52 52 53 52 51 51 51
52 52 52 52 52 53 54 55 55 55 55 55 55 54 54 54 54 53 53 53 52 52
51 51 52 51 52 52 54 54 54 54 54 54 54 54 54 53 53 53 53 53 53 53
51 51 51 51 51 51 51 53 54 54 54 54 54 54 53 53 53 52 52 53 53 52
51 51 51 50 51 51 50 51 52 53 53 53 53 54 53 53 52 52 52 53 53 53
51 51 51 50 50 50 50 51 51 52 52 53 53 53 53 52 52 52 51 52 53 53
51 52 51 51 50 50 50 50 51 51 51 52 52 52 52 52 52 51 51 51 52 53
53 52 51 51 51 50 51 51 50 50 51 51 51 45 44 49 52 52 51 51 51 52
54 53 52 52 52 52 51 51 51 51 50 50 51 43 43 43 51 51 51 51 50 47
54 54 55 53 52 52 52 52 51 51 51 51 50 43 42 41 48 48 48 49 49 47
53 54 54 54 54 54 53 53 53 52 51 51 50 43 42 41 46 46 43 42 43 46
44 48 51 53 54 55 54 53 53 52 50 47 50 43 42 42 48 43 35 34 34 36
36 39 41 44 51 53 54 48 41 34 34 34 34 35 37 39 46 41 33 32 31 32

GFSNIL_sfc_dewp_105.txt.gz
Dewpoint
56 55 55 55 54 55 55 57 59 59 56 55 54 54 53 53 54 54 55 54 53 53
55 55 54 54 54 54 56 56 58 58 57 55 55 55 53 53 53 53 55 54 55 53
55 55 55 55 53 54 56 56 57 57 55 54 55 54 53 53 53 53 53 53 53 53
54 55 55 55 54 55 56 55 56 56 55 55 55 54 53 52 52 53 52 53 53 53
53 54 54 54 55 56 55 55 55 55 55 55 55 54 53 51 51 52 52 52 53 52
52 53 54 54 54 54 55 55 55 55 54 54 54 53 52 52 50 50 52 52 52 51
52 53 53 53 54 53 54 55 54 54 54 54 54 54 53 53 52 51 51 52 53 52
52 52 53 53 53 53 53 53 54 54 55 54 54 53 53 53 53 53 52 53 53 53
52 52 53 53 53 53 52 52 53 52 53 54 53 46 46 50 53 52 52 51 52 51
52 52 53 53 52 52 52 52 52 52 52 53 53 44 44 44 53 53 52 52 51 51
54 53 52 52 52 52 52 52 52 52 52 52 52 42 43 42 53 54 54 54 54 53
47 52 54 53 53 53 53 53 52 52 51 51 51 43 41 42 50 51 51 52 53 53
39 42 43 44 52 54 54 53 53 46 39 37 44 37 40 42 48 46 43 35 35 35
35 36 37 40 40 42 51 39 35 33 33 34 34 36 37 39 45 38 33 32 32 32

GFSNIL_sfc_dewp_108.txt.gz
Dewpoint
59 58 57 56 55 55 56 58 60 58 58 57 57 57 57 56 57 57 56 55 55 55
58 58 56 57 56 56 57 57 59 58 57 57 56 55 55 55 56 57 56 56 56 55
58 57 57 56 55 56 57 57 57 59 57 56 55 55 55 54 54 55 56 56 55 55
57 57 56 56 55 56 57 56 56 58 58 56 55 55 54 53 54 54 55 55 54 54
56 56 55 55 55 56 56 56 56 56 56 55 55 55 53 52 53 53 53 53 53 53
55 55 54 55 55 55 56 55 56 56 56 55 55 54 53 53 53 53 53 53 52 52
55 54 55 55 55 55 55 55 55 54 55 55 55 54 53 52 51 52 52 53 52 52
54 53 54 54 54 54 54 55 55 55 55 56 55 54 54 52 52 51 51 52 51 52
53 52 53 54 54 54 54 53 55 55 55 55 54 46 46 50 52 51 50 50 51 52
53 52 53 53 53 53 53 54 54 53 55 55 54 44 45 44 54 53 52 52 52 52
53 53 53 52 52 53 53 53 53 54 54 53 54 43 44 43 54 53 53 53 52 52
46 49 53 53 53 54 53 53 54 53 53 53 53 41 42 43 52 54 54 54 54 53
40 41 42 43 46 52 54 54 52 41 39 38 43 37 40 42 50 49 44 39 39 35
35 37 37 39 39 42 44 37 35 33 33 34 35 36 37 39 48 40 34 33 32 33

GFSNIL_sfc_dewp_111.txt.gz
Dewpoint
61 60 60 59 58 58 58 59 60 60 59 59 59 59 58 57 56 56 56 56 56 56
60 60 59 60 59 57 57 56 59 60 59 59 58 58 57 57 56 56 56 56 56 56
59 60 60 60 58 57 56 58 60 59 58 58 57 57 57 56 56 56 56 56 56 56
58 59 59 58 58 57 57 57 57 59 58 57 56 56 55 55 56 56 56 56 55 55
57 58 58 58 56 57 57 56 56 57 58 57 56 55 54 54 54 54 55 55 55 55
56 58 57 56 56 56 57 55 56 56 57 56 56 55 55 54 53 54 54 55 54 54
57 57 56 55 56 56 56 55 55 55 56 56 56 55 54 53 53 53 54 55 54 54
56 56 56 55 55 56 55 55 54 55 55 56 55 54 54 53 53 53 53 53 54 53
55 56 55 55 55 55 56 55 55 55 55 55 53 46 46 51 53 52 52 52 52 52
54 54 55 54 54 54 54 55 55 55 55 54 55 45 44 44 53 52 52 51 52 51
54 53 53 53 54 54 54 54 55 55 55 55 55 43 43 42 54 53 53 52 52 52
47 51 53 53 53 54 54 54 54 54 55 54 49 39 41 45 53 53 53 53 53 52
40 42 43 44 47 50 54 51 44 40 38 36 42 36 38 44 52 48 41 37 35 35
35 37 38 39 40 42 39 36 35 33 32 32 34 35 37 39 49 42 34 33 32 33

GFSNIL_sfc_dewp_114.txt.gz
Dewpoint
62 61 60 61 60 60 60 60 62 62 61 60 60 59 58 58 57 56 56 55 56 57
60 61 60 61 61 60 59 59 61 61 60 59 59 59 58 57 57 56 56 56 56 56
58 59 60 61 60 59 59 59 60 60 59 58 58 58 57 57 57 56 56 56 56 56
57 59 60 60 60 59 59 59 59 59 59 58 57 57 57 56 56 55 55 56 56 55
59 58 59 60 59 59 57 58 59 59 58 57 56 56 56 55 56 55 55 55 55 55
57 58 58 59 57 57 57 57 56 58 57 56 56 55 55 55 55 55 55 55 55 55
56 57 57 57 57 57 57 55 54 58 57 56 55 55 55 54 54 54 55 55 55 55
56 57 57 56 56 56 57 55 55 56 56 56 55 55 54 54 53 53 53 54 54 55
56 56 57 56 56 56 56 55 54 53 56 55 54 46 46 51 53 53 53 52 53 53
55 56 56 56 55 55 55 55 55 54 54 54 53 45 45 45 53 52 52 52 52 52
55 55 56 55 55 55 55 55 55 55 55 54 50 43 43 43 53 52 52 51 52 52
43 54 55 54 54 55 54 55 53 50 47 46 40 38 40 45 52 52 51 50 43 49
37 42 46 49 51 50 50 43 39 36 35 35 38 36 39 43 51 44 37 35 35 35
34 36 37 39 41 41 38 35 33 31 31 32 33 34 38 40 46 38 34 33 32 33

GFSNIL_sfc_dewp_117.txt.gz
Dewpoint
53 61 60 60 61 60 60 61 62 62 61 60 59 59 59 58 58 57 57 57 56 56
52 58 60 60 60 61 61 61 62 62 61 60 60 59 58 58 57 57 56 56 56 56
49 52 60 60 59 61 61 61 61 61 61 60 59 59 58 57 57 56 56 56 56 56
46 51 59 59 59 60 60 60 61 60 59 59 58 58 58 57 57 56 56 56 56 55
46 56 58 58 59 60 59 60 59 58 58 58 58 58 57 56 56 55 55 55 55 55
45 58 58 58 59 59 59 59 59 58 58 58 57 56 56 56 56 55 55 55 55 55
44 56 58 58 58 58 58 58 58 58 58 57 56 56 56 56 55 56 55 55 55 55
44 55 57 58 58 58 57 56 57 58 57 56 56 55 55 55 54 54 54 55 55 55
47 55 56 57 57 57 56 55 56 56 56 55 55 46 46 52 54 53 53 53 53 53
40 56 56 56 56 56 56 55 54 55 55 55 55 44 45 45 53 53 53 52 52 51
37 45 56 56 56 56 56 55 54 54 55 53 47 43 43 43 53 52 52 52 52 51
36 38 54 55 55 56 55 55 51 51 48 44 41 39 42 46 52 51 48 45 43 51
35 35 38 51 55 54 48 42 39 35 35 36 38 37 40 46 50 41 37 35 35 35
33 34 34 38 45 42 37 35 32 31 31 32 33 35 39 42 44 37 33 32 32 33

GFSNIL_sfc_dewp_123.txt.gz
Dewpoint
45 46 49 53 57 60 61 61 62 62 62 62 62 60 60 60 60 59 58 57 57 57
42 42 44 46 49 52 60 61 61 61 62 62 61 61 60 60 59 59 58 58 57 57
40 41 42 44 47 49 52 60 60 60 61 61 61 61 60 59 59 58 58 58 57 57
38 39 40 42 45 47 50 53 60 60 60 61 60 60 59 59 58 58 57 57 56 56
38 39 40 41 43 46 49 54 58 60 60 61 60 59 59 58 58 57 56 56 56 56
37 38 38 40 42 45 47 56 57 60 60 60 60 59 59 58 57 57 56 56 56 55
36 36 37 39 41 44 48 56 59 60 60 60 59 59 58 58 57 56 56 56 56 55
34 35 36 38 40 43 48 56 59 59 59 59 59 58 57 57 56 56 55 55 55 55
32 33 35 37 39 41 45 55 58 59 58 58 58 48 47 53 55 55 55 54 54 55
31 32 33 35 37 40 43 54 57 58 58 57 57 45 46 46 55 55 54 54 54 53
30 30 32 34 36 38 41 50 57 57 57 56 55 44 44 44 54 54 54 54 54 53
28 29 31 33 34 37 40 44 56 56 55 55 50 42 42 47 52 52 50 49 49 52
28 29 30 31 34 35 38 48 44 39 44 44 45 41 41 48 48 43 39 37 37 36
27 28 29 30 33 34 35 36 35 34 34 35 37 40 42 43 46 40 35 34 33 34